{"data":{"norad_id":53074,"epoch":"2026-05-25T01:59:33.835200Z","epoch_age_seconds":61885,"freshness":"FRESH","line1":"1 53074U 22077AH  26145.08303050 -.00000026  00000+0  23474-5 0  9997","line2":"2 53074  97.5786 326.4927 0001264  99.4427 260.6944 15.08344107212485","mean_motion":15.08344107,"eccentricity":0.0001264,"inclination_deg":97.5786,"raan_deg":326.4927,"arg_perigee_deg":99.4427,"mean_anomaly_deg":260.6944,"bstar":2.3474e-6,"rev_number":21248,"period_min":95.468931347772,"perigee_km":540.38493901311,"apogee_km":542.13416246114,"semimajor_km":6919.3965507371,"source":"CELESTRAK","updated_at":"2026-05-25T13:38:17.312407Z"}}